Regional Weather Roundup
Issued by NWS Burlington, VT

Home | Current Version | Previous Version | Text Only | Print | Product List | Glossary On
Versions: 1 2 3 4 5 6 7 8 9 10 11 12 13 14 15 16 17 18 19 20 21 22 23 24 25 26 27 28 29 30 31 32 33 34 35 36 37 38 39 40 41 42 43 44 45 46 47 48 49 50
000
ASUS41 KBTV 161410
RWRBTV
VERMONT REGIONAL WEATHER ROUNDUP
NATIONAL WEATHER SERVICE BURLINGTON VT
1000 AM EDT TUE SEP 16 2014

NOTE: "FAIR" INDICATES FEW OR NO CLOUDS BELOW 12,000 FEET WITH NO
SIGNIFICANT WEATHER AND/OR OBSTRUCTIONS TO VISIBILITY.

* THESE REPORTS ARE NOT UNDER NWS QUALITY CONTROL AND/OR DO NOT
  REPORT WEATHER SUCH AS PRECIPITATION AND FOG.

VTZ001>019-161500-
_____VERMONT_____


CITY           SKY/WX    TMP DP  RH WIND       PRES   REMARKS
BURLINGTON     CLOUDY    55  51  86 S8        30.01R
MONTPELIER     CLOUDY    51  49  92 S3        30.04S
MORRISVILLE    CLOUDY    53  50  89 S5        30.00F
ST. JOHNSBURY*   N/A     51  49  92 MISG      29.99F
MIDDLEBURY*    CLOUDY    53  53 100 S3        30.01S FOG
RUTLAND*       CLOUDY    52  50  93 W3        30.01S
SPRINGFIELD    CLOUDY    51  50  96 CALM      30.03S
HIGHGATE*      DRIZZLE   51  49  93 S5        29.99S
NEWPORT*       CLOUDY    51  49  92 SW3       30.00S
BENNINGTON     CLOUDY    54  50  86 CALM      30.02S

_____LAKE CHAMPLAIN_____


CITY           SKY/WX    TMP DP  RH WIND       PRES   REMARKS
COLCHESTER RF*   N/A     55  52  88 SW14        N/A
DIAMOND ISL*     N/A     54  50  87 SE6         N/A

$$

NYZ007-026>031-035-052-083-161500-
_____NORTHERN NEW YORK_____


CITY           SKY/WX    TMP DP  RH WIND       PRES   REMARKS
PLATTSBURGH    CLOUDY    54  52  93 MISG      29.99S
SARANAC LAKE   CLOUDY    50  49  96 W5        29.99S FOG
MASSENA        CLOUDY    56  52  86 W8        30.01S
OGDENSBURG*    PTSUNNY   61  54  77 NW6       30.01S
WATERTOWN      CLOUDY    59  51  75 S3        30.03R
FT DRUM        PTSUNNY   57  54  88 NW5       30.02R
ALBANY         CLOUDY    56  52  86 CALM      30.03R
GLENS FALLS    CLOUDY    54  51  90 S5        30.01S

$$
NHZ002-005-011-161500-
_____NEW HAMPSHIRE_____


CITY           SKY/WX    TMP DP  RH WIND       PRES   REMARKS
LEBANON        CLOUDY    53  50  89 CALM      30.02S
KEENE          CLOUDY    52  43  71 CALM      30.04S
MT WASHINGTON  LGTSLEET  32  32 100 W26         N/A  VSB 0
PLYMOUTH       LGT RAIN  50  50 100 CALM      30.03F
WHITEFIELD     LGT RAIN  52  48  86 CALM      30.01F

$$

_____REGIONAL QUEBEC LOCATIONS_____


CITY           SKY/WX    TMP DP  RH WIND       PRES   REMARKS
MONTREAL       CLOUDY    55  52  88 W8        29.99S
QUEBEC CITY    PTSUNNY   55  50  82 W8        29.95F
SHERBROOKE     LGT RAIN  50  50 100 SW3       29.98F

_____REGIONAL ONTARIO LOCATIONS_____


CITY           SKY/WX    TMP DP  RH WIND       PRES   REMARKS
OTTAWA         PTSUNNY   54  50  87 W8        30.01S

______KEY______
VSB  - VISIBILITY IN MILES
WCI  - WIND CHILL INDEX
HX   - HEAT INDEX
$$
NNNN


USA.gov is the U.S. government's official web portal to all federal, state and local government web resources and services.